Time,TemperatureF,DewpointF,PressureIn,WindDirection,WindDirectionDegrees,WindSpeedMPH,WindSpeedGustMPH,Humidity,HourlyPrecipIn,Conditions,Clouds,dailyrainin,SolarRadiationWatts/m^2,SoftwareType,DateUTC
2013-11-02 00:01:00,45.2,40.0,29.81,West,264,2.3,4.0,82,0.00,CLR,,0.00,0.0,WeatherDisplay:10.37,2013-11-02 05:01:00,
2013-11-02 00:06:00,45.2,40.0,29.81,West,264,3.7,5.8,82,0.00,CLR,,0.00,0.0,WeatherDisplay:10.37,2013-11-02 05:06:00,
2013-11-02 00:11:00,45.2,40.0,29.80,West,265,2.9,4.6,82,0.00,CLR,,0.00,0.0,WeatherDisplay:10.37,2013-11-02 05:11:00,
2013-11-02 00:16:00,45.3,40.1,29.80,West,265,3.5,9.0,82,0.00,CLR,,0.00,0.0,WeatherDisplay:10.37,2013-11-02 05:16:00,
2013-11-02 00:21:00,45.3,40.1,29.80,West,262,4.5,5.8,82,0.00,CLR,,0.00,0.0,WeatherDisplay:10.37,2013-11-02 05:21:00,
2013-11-02 00:26:00,45.4,40.2,29.81,West,265,3.9,5.8,82,0.00,CLR,,0.00,0.0,WeatherDisplay:10.37,2013-11-02 05:26:00,
2013-11-02 00:31:00,45.5,40.3,29.81,West,265,3.4,7.0,82,0.00,CLR,,0.00,0.0,WeatherDisplay:10.37,2013-11-02 05:31:00,
2013-11-02 00:36:00,45.6,40.4,29.81,West,265,5.2,6.9,82,0.00,CLR,,0.00,0.0,WeatherDisplay:10.37,2013-11-02 05:36:00,
2013-11-02 00:41:00,45.6,40.4,29.81,West,266,3.7,4.6,82,0.00,CLR,,0.00,0.0,WeatherDisplay:10.37,2013-11-02 05:41:00,
2013-11-02 00:46:00,45.7,40.5,29.81,West,266,4.1,5.8,82,0.00,CLR,,0.00,0.0,WeatherDisplay:10.37,2013-11-02 05:46:00,
2013-11-02 00:51:00,45.8,40.6,29.81,West,266,3.7,4.6,82,0.00,CLR,,0.00,0.0,WeatherDisplay:10.37,2013-11-02 05:51:00,
2013-11-02 00:56:00,45.8,40.6,29.81,West,265,2.0,3.5,82,0.00,CLR,,0.00,0.0,WeatherDisplay:10.37,2013-11-02 05:56:00,
2013-11-02 01:01:00,45.8,40.6,29.81,West,266,1.8,4.0,82,0.00,CLR,,0.00,0.0,WeatherDisplay:10.37,2013-11-02 06:01:00,
2013-11-02 01:06:00,45.8,40.6,29.81,West,265,3.9,5.8,82,0.00,CLR,,0.00,0.0,WeatherDisplay:10.37,2013-11-02 06:06:00,
2013-11-02 01:11:00,45.8,40.6,29.81,West,265,3.4,5.8,82,0.00,CLR,,0.00,0.0,WeatherDisplay:10.37,2013-11-02 06:11:00,
2013-11-02 01:17:00,45.8,40.6,29.81,West,267,3.8,5.8,82,0.00,CLR,,0.00,0.0,WeatherDisplay:10.37,2013-11-02 06:17:00,
2013-11-02 01:22:00,45.8,40.9,29.82,West,267,5.2,6.0,83,0.00,CLR,,0.00,0.0,WeatherDisplay:10.37,2013-11-02 06:22:00,
2013-11-02 01:27:00,45.9,41.0,29.82,West,267,4.4,6.0,83,0.00,CLR,,0.00,0.0,WeatherDisplay:10.37,2013-11-02 06:27:00,
2013-11-02 01:32:00,46.0,41.1,29.82,West,267,4.5,6.9,83,0.00,CLR,,0.00,0.0,WeatherDisplay:10.37,2013-11-02 06:32:00,
2013-11-02 01:37:00,46.0,41.1,29.82,West,267,2.4,5.0,83,0.00,CLR,,0.00,0.0,WeatherDisplay:10.37,2013-11-02 06:37:00,
2013-11-02 01:42:00,46.1,41.5,29.82,West,267,2.9,4.6,84,0.00,CLR,,0.00,0.0,WeatherDisplay:10.37,2013-11-02 06:42:00,
2013-11-02 01:47:00,46.1,41.5,29.82,NW,314,3.5,5.0,84,0.00,CLR,,0.00,0.0,WeatherDisplay:10.37,2013-11-02 06:47:00,
2013-11-02 01:52:00,46.1,41.8,29.82,WNW,292,3.7,4.6,85,0.00,CLR,,0.00,0.0,WeatherDisplay:10.37,2013-11-02 06:52:00,
2013-11-02 01:57:00,46.0,41.7,29.83,WNW,292,4.3,5.8,85,0.00,CLR,,0.00,0.0,WeatherDisplay:10.37,2013-11-02 06:57:00,
2013-11-02 02:02:00,46.0,41.7,29.83,WNW,293,5.3,7.0,85,0.00,CLR,,0.00,0.0,WeatherDisplay:10.37,2013-11-02 07:02:00,
2013-11-02 02:07:00,46.0,42.0,29.83,WNW,288,3.9,5.0,86,0.00,CLR,,0.00,0.0,WeatherDisplay:10.37,2013-11-02 07:07:00,
2013-11-02 02:12:00,46.0,42.0,29.83,WNW,288,4.2,6.0,86,0.00,CLR,,0.00,0.0,WeatherDisplay:10.37,2013-11-02 07:12:00,
2013-11-02 02:17:00,45.9,41.9,29.83,WNW,288,4.4,6.9,86,0.00,CLR,,0.00,0.0,WeatherDisplay:10.37,2013-11-02 07:17:00,
2013-11-02 02:22:00,45.8,41.9,29.83,WNW,291,3.3,5.8,86,0.00,CLR,,0.00,0.0,WeatherDisplay:10.37,2013-11-02 07:22:00,
2013-11-02 02:27:00,45.7,41.8,29.83,WNW,292,3.4,5.0,86,0.00,CLR,,0.00,0.0,WeatherDisplay:10.37,2013-11-02 07:27:00,
2013-11-02 02:32:00,45.6,41.7,29.83,WNW,284,3.5,4.6,86,0.00,CLR,,0.00,0.0,WeatherDisplay:10.37,2013-11-02 07:32:00,
2013-11-02 02:37:00,45.5,41.9,29.83,West,273,4.4,6.9,87,0.00,CLR,,0.00,0.0,WeatherDisplay:10.37,2013-11-02 07:37:00,
2013-11-02 02:42:00,45.4,41.8,29.84,WNW,283,6.0,8.0,87,0.00,CLR,,0.00,0.0,WeatherDisplay:10.37,2013-11-02 07:42:00,
2013-11-02 02:47:00,45.4,41.8,29.84,WNW,283,3.5,4.6,87,0.00,CLR,,0.00,0.0,WeatherDisplay:10.37,2013-11-02 07:47:00,
2013-11-02 02:52:00,45.4,41.8,29.84,WNW,286,4.9,9.2,87,0.00,CLR,,0.00,0.0,WeatherDisplay:10.37,2013-11-02 07:52:00,
2013-11-02 02:57:00,45.4,41.8,29.84,WNW,290,5.1,7.0,87,0.00,CLR,,0.00,0.0,WeatherDisplay:10.37,2013-11-02 07:57:00,
2013-11-02 03:02:00,45.4,41.8,29.84,NW,323,7.4,10.0,87,0.00,CLR,,0.00,0.0,WeatherDisplay:10.37,2013-11-02 08:02:00,
2013-11-02 03:07:00,45.4,41.5,29.84,WNW,302,5.6,9.2,86,0.00,CLR,,0.00,0.0,WeatherDisplay:10.37,2013-11-02 08:07:00,
2013-11-02 03:12:00,45.4,41.8,29.84,WNW,291,5.5,10.0,87,0.00,CLR,,0.00,0.0,WeatherDisplay:10.37,2013-11-02 08:12:00,
2013-11-02 03:17:00,45.5,41.6,29.84,NW,311,7.6,15.0,86,0.00,CLR,,0.00,0.0,WeatherDisplay:10.37,2013-11-02 08:17:00,
2013-11-02 03:22:00,45.6,41.7,29.84,NW,304,8.7,12.0,86,0.00,CLR,,0.00,0.0,WeatherDisplay:10.37,2013-11-02 08:22:00,
2013-11-02 03:27:00,45.6,41.4,29.84,WNW,302,6.5,10.4,85,0.00,CLR,,0.00,0.0,WeatherDisplay:10.37,2013-11-02 08:27:00,
2013-11-02 03:32:00,45.6,41.4,29.84,NW,313,8.5,10.4,85,0.00,CLR,,0.00,0.0,WeatherDisplay:10.37,2013-11-02 08:32:00,
2013-11-02 03:37:00,45.7,41.1,29.84,NW,319,7.1,10.4,84,0.00,CLR,,0.00,0.0,WeatherDisplay:10.37,2013-11-02 08:37:00,
2013-11-02 03:42:00,45.7,41.1,29.84,NW,304,7.1,10.4,84,0.00,CLR,,0.00,0.0,WeatherDisplay:10.37,2013-11-02 08:42:00,
2013-11-02 03:47:00,45.8,41.2,29.84,WNW,303,7.5,11.0,84,0.00,CLR,,0.00,0.0,WeatherDisplay:10.37,2013-11-02 08:47:00,
2013-11-02 03:52:00,45.8,41.2,29.85,North,355,8.9,12.0,84,0.00,CLR,,0.00,0.0,WeatherDisplay:10.37,2013-11-02 08:52:00,
2013-11-02 03:57:00,45.8,41.2,29.85,NW,313,5.3,9.0,84,0.00,CLR,,0.00,0.0,WeatherDisplay:10.37,2013-11-02 08:57:00,
2013-11-02 04:02:00,45.7,41.1,29.85,NW,319,7.2,11.5,84,0.00,CLR,,0.00,0.0,WeatherDisplay:10.37,2013-11-02 09:02:00,
2013-11-02 04:07:00,45.6,41.0,29.85,NW,311,9.5,13.0,84,0.00,CLR,,0.00,0.0,WeatherDisplay:10.37,2013-11-02 09:07:00,
2013-11-02 04:12:00,45.6,41.0,29.86,NW,313,6.0,10.0,84,0.00,CLR,,0.00,0.0,WeatherDisplay:10.37,2013-11-02 09:12:00,
2013-11-02 04:17:00,45.5,40.9,29.86,WNW,290,8.2,11.5,84,0.00,CLR,,0.00,0.0,WeatherDisplay:10.37,2013-11-02 09:17:00,
2013-11-02 04:22:00,45.4,40.8,29.86,NW,310,9.5,14.0,84,0.00,CLR,,0.00,0.0,WeatherDisplay:10.37,2013-11-02 09:22:00,
2013-11-02 04:27:00,45.3,40.7,29.86,NW,304,8.3,11.0,84,0.00,CLR,,0.00,0.0,WeatherDisplay:10.37,2013-11-02 09:27:00,
2013-11-02 04:32:00,45.2,40.7,29.86,NW,311,4.6,6.0,84,0.00,CLR,,0.00,0.0,WeatherDisplay:10.37,2013-11-02 09:32:00,
2013-11-02 04:37:00,45.2,40.7,29.86,NW,314,7.3,12.0,84,0.00,CLR,,0.00,0.0,WeatherDisplay:10.37,2013-11-02 09:37:00,
2013-11-02 04:42:00,45.1,40.6,29.86,WNW,303,6.1,9.2,84,0.00,CLR,,0.00,0.0,WeatherDisplay:10.37,2013-11-02 09:42:00,
2013-11-02 04:47:00,45.0,40.5,29.86,NW,314,8.7,12.7,84,0.00,CLR,,0.00,0.0,WeatherDisplay:10.37,2013-11-02 09:47:00,
2013-11-02 04:52:00,45.0,40.5,29.87,NW,311,9.0,12.0,84,0.00,CLR,,0.00,0.0,WeatherDisplay:10.37,2013-11-02 09:52:00,
2013-11-02 04:57:00,44.8,40.3,29.87,WNW,292,8.0,11.5,84,0.00,CLR,,0.00,0.0,WeatherDisplay:10.37,2013-11-02 09:57:00,
2013-11-02 05:02:00,44.6,40.1,29.88,WNW,296,7.4,10.4,84,0.00,CLR,,0.00,0.0,WeatherDisplay:10.37,2013-11-02 10:02:00,
2013-11-02 05:07:00,44.4,39.9,29.88,WNW,286,7.2,11.5,84,0.00,CLR,,0.00,0.0,WeatherDisplay:10.37,2013-11-02 10:07:00,
2013-11-02 05:12:00,44.2,40.0,29.88,WNW,296,5.0,6.9,85,0.00,CLR,,0.00,0.0,WeatherDisplay:10.37,2013-11-02 10:12:00,
2013-11-02 05:17:00,44.0,39.8,29.89,NW,311,5.6,10.4,85,0.00,CLR,,0.00,0.0,WeatherDisplay:10.37,2013-11-02 10:17:00,
2013-11-02 05:22:00,43.7,39.5,29.89,WNW,300,8.8,11.5,85,0.00,CLR,,0.00,0.0,WeatherDisplay:10.37,2013-11-02 10:22:00,
2013-11-02 05:27:00,43.5,39.3,29.90,WNW,288,7.0,10.4,85,0.00,CLR,,0.00,0.0,WeatherDisplay:10.37,2013-11-02 10:27:00,
2013-11-02 05:32:00,43.3,39.1,29.90,WNW,301,7.0,11.0,85,0.00,CLR,,0.00,0.0,WeatherDisplay:10.37,2013-11-02 10:32:00,
2013-11-02 05:37:00,43.1,39.2,29.90,WNW,300,6.1,10.4,86,0.00,CLR,,0.00,0.0,WeatherDisplay:10.37,2013-11-02 10:37:00,
2013-11-02 05:42:00,42.9,39.0,29.90,WNW,288,8.1,12.0,86,0.00,CLR,,0.00,0.0,WeatherDisplay:10.37,2013-11-02 10:42:00,
2013-11-02 05:47:00,42.8,38.9,29.90,WNW,294,5.7,7.0,86,0.00,CLR,,0.00,0.0,WeatherDisplay:10.37,2013-11-02 10:47:00,
2013-11-02 05:52:00,42.6,38.7,29.91,NW,307,5.5,6.9,86,0.00,CLR,,0.00,0.0,WeatherDisplay:10.37,2013-11-02 10:52:00,
2013-11-02 05:57:00,42.4,38.5,29.91,NW,307,7.7,15.0,86,0.00,CLR,,0.00,0.0,WeatherDisplay:10.37,2013-11-02 10:57:00,
2013-11-02 06:02:00,42.3,38.7,29.92,WNW,296,6.8,11.5,87,0.00,CLR,,0.00,0.0,WeatherDisplay:10.37,2013-11-02 11:02:00,
2013-11-02 06:07:00,42.1,38.5,29.92,WNW,296,9.6,11.5,87,0.00,CLR,,0.00,0.0,WeatherDisplay:10.37,2013-11-02 11:07:00,
2013-11-02 06:12:00,42.0,38.4,29.92,WNW,296,6.9,10.4,87,0.00,CLR,,0.00,0.0,WeatherDisplay:10.37,2013-11-02 11:12:00,
2013-11-02 06:17:00,41.8,38.2,29.92,NW,304,5.6,9.2,87,0.00,CLR,,0.00,0.0,WeatherDisplay:10.37,2013-11-02 11:17:00,
2013-11-02 06:22:00,41.7,38.1,29.92,NW,309,6.4,10.4,87,0.00,CLR,,0.00,0.0,WeatherDisplay:10.37,2013-11-02 11:22:00,
2013-11-02 06:27:00,41.5,37.9,29.92,WNW,292,8.8,12.0,87,0.00,CLR,,0.00,0.0,WeatherDisplay:10.37,2013-11-02 11:27:00,
2013-11-02 06:32:00,41.4,38.1,29.93,NW,304,8.7,12.0,88,0.00,CLR,,0.00,0.0,WeatherDisplay:10.37,2013-11-02 11:32:00,
2013-11-02 06:37:00,41.3,38.0,29.93,NW,317,6.6,9.2,88,0.00,CLR,,0.00,0.0,WeatherDisplay:10.37,2013-11-02 11:37:00,
2013-11-02 06:42:00,41.1,37.8,29.93,NW,304,6.2,10.4,88,0.00,CLR,,0.00,0.0,WeatherDisplay:10.37,2013-11-02 11:42:00,
2013-11-02 06:47:00,41.0,37.7,29.93,NW,313,7.6,10.4,88,0.00,CLR,,0.00,0.0,WeatherDisplay:10.37,2013-11-02 11:47:00,
2013-11-02 06:52:00,40.9,37.6,29.94,WNW,302,10.4,13.0,88,0.00,CLR,,0.00,0.0,WeatherDisplay:10.37,2013-11-02 11:52:00,
2013-11-02 06:57:00,40.8,37.5,29.94,NW,313,8.2,11.5,88,0.00,CLR,,0.00,0.0,WeatherDisplay:10.37,2013-11-02 11:57:00,
2013-11-02 07:02:00,40.6,37.3,29.94,NW,304,7.1,11.5,88,0.00,CLR,,0.00,0.0,WeatherDisplay:10.37,2013-11-02 12:02:00,
2013-11-02 07:07:00,40.5,37.2,29.94,WNW,299,7.7,11.5,88,0.00,OVC,,0.00,0.0,WeatherDisplay:10.37,2013-11-02 12:07:00,
2013-11-02 07:12:00,40.4,37.1,29.95,NW,313,10.0,14.0,88,0.00,OVC,,0.00,0.0,WeatherDisplay:10.37,2013-11-02 12:12:00,
2013-11-02 07:17:00,40.2,36.9,29.95,NW,317,7.8,12.0,88,0.00,OVC,,0.00,0.0,WeatherDisplay:10.37,2013-11-02 12:17:00,
2013-11-02 07:22:00,40.1,36.8,29.95,NW,313,8.8,11.5,88,0.00,OVC,,0.00,0.0,WeatherDisplay:10.37,2013-11-02 12:22:00,
2013-11-02 07:27:00,39.9,36.6,29.96,NW,314,8.4,14.0,88,0.00,OVC,,0.00,0.0,WeatherDisplay:10.37,2013-11-02 12:27:00,
2013-11-02 07:32:00,39.8,36.2,29.96,NNW,339,7.6,10.4,87,0.00,OVC,,0.00,0.0,WeatherDisplay:10.37,2013-11-02 12:32:00,
2013-11-02 07:37:00,39.7,36.1,29.96,WNW,302,5.5,8.1,87,0.00,OVC,,0.00,6.2,WeatherDisplay:10.37,2013-11-02 12:37:00,
2013-11-02 07:42:00,39.6,36.0,29.97,WNW,302,6.3,9.2,87,0.00,CLR,,0.00,13.6,WeatherDisplay:10.37,2013-11-02 12:42:00,
2013-11-02 07:47:00,39.6,36.0,29.97,NNW,329,7.0,11.5,87,0.00,CLR,,0.00,22.3,WeatherDisplay:10.37,2013-11-02 12:47:00,
2013-11-02 07:52:00,39.6,35.8,29.97,NNW,327,5.4,11.5,86,0.00,CLR,,0.00,32.2,WeatherDisplay:10.37,2013-11-02 12:52:00,
2013-11-02 07:57:00,39.6,35.8,29.98,NNW,344,6.1,11.0,86,0.00,CLR,,0.00,34.7,WeatherDisplay:10.37,2013-11-02 12:57:00,
2013-11-02 08:02:00,39.6,35.8,29.98,NNW,334,8.7,14.0,86,0.00,CLR,,0.00,43.4,WeatherDisplay:10.37,2013-11-02 13:02:00,
2013-11-02 08:07:00,39.7,35.6,29.98,NW,326,5.7,8.1,85,0.00,CLR,,0.00,69.4,WeatherDisplay:10.37,2013-11-02 13:07:00,
2013-11-02 08:12:00,39.8,35.7,29.98,NW,315,8.0,17.3,85,0.00,CLR,,0.00,65.7,WeatherDisplay:10.37,2013-11-02 13:12:00,
2013-11-02 08:17:00,39.8,35.4,29.99,NNE,15,5.1,10.0,84,0.00,FEW,,0.00,45.9,WeatherDisplay:10.37,2013-11-02 13:17:00,
2013-11-02 08:22:00,39.8,35.4,29.99,NW,307,5.4,10.4,84,0.00,SCT,,0.00,45.9,WeatherDisplay:10.37,2013-11-02 13:22:00,
2013-11-02 08:27:00,39.8,35.1,30.00,North,5,8.2,11.5,83,0.00,FEW,,0.00,58.3,WeatherDisplay:10.37,2013-11-02 13:27:00,
2013-11-02 08:32:00,39.8,35.1,30.00,NNW,342,8.1,12.0,83,0.00,FEW,,0.00,69.4,WeatherDisplay:10.37,2013-11-02 13:32:00,
2013-11-02 08:37:00,39.9,35.2,30.00,NW,313,5.7,11.5,83,0.00,CLR,,0.00,121.5,WeatherDisplay:10.37,2013-11-02 13:37:00,
2013-11-02 08:42:00,39.9,35.2,30.01,NNW,334,5.6,9.0,83,0.00,CLR,,0.00,74.4,WeatherDisplay:10.37,2013-11-02 13:42:00,
2013-11-02 08:47:00,39.9,35.2,30.01,NNE,15,9.1,13.8,83,0.00,FEW,,0.00,74.4,WeatherDisplay:10.37,2013-11-02 13:47:00,
2013-11-02 08:52:00,39.9,35.2,30.02,North,355,5.0,9.2,83,0.00,SCT,,0.00,111.6,WeatherDisplay:10.37,2013-11-02 13:52:00,
2013-11-02 08:57:00,39.9,35.2,30.02,NNW,329,5.2,8.1,83,0.00,SCT,,0.00,80.6,WeatherDisplay:10.37,2013-11-02 13:57:00,
2013-11-02 09:02:00,39.9,35.2,30.02,WNW,300,5.1,9.2,83,0.00,SCT,,0.00,78.1,WeatherDisplay:10.37,2013-11-02 14:02:00,
2013-11-02 09:07:00,39.9,35.2,30.02,NW,323,8.7,11.5,83,0.00,FEW,,0.00,302.6,WeatherDisplay:10.37,2013-11-02 14:07:00,
2013-11-02 09:12:00,40.1,35.4,30.03,NW,318,7.3,11.5,83,0.00,CLR,,0.00,311.2,WeatherDisplay:10.37,2013-11-02 14:12:00,
2013-11-02 09:17:00,40.5,35.4,30.03,NW,322,10.1,15.0,82,0.00,CLR,,0.00,331.1,WeatherDisplay:10.37,2013-11-02 14:17:00,
2013-11-02 09:22:00,40.9,35.5,30.03,WNW,300,10.3,16.1,81,0.00,CLR,,0.00,355.9,WeatherDisplay:10.37,2013-11-02 14:22:00,
2013-11-02 09:27:00,41.4,35.7,30.03,NNW,330,8.8,16.1,80,0.00,CLR,,0.00,379.4,WeatherDisplay:10.37,2013-11-02 14:27:00,
2013-11-02 09:32:00,41.8,35.8,30.03,NW,307,11.5,15.0,79,0.00,CLR,,0.00,434.0,WeatherDisplay:10.37,2013-11-02 14:32:00,
2013-11-02 09:37:00,42.3,35.9,30.04,NNW,327,6.5,12.7,78,0.00,CLR,,0.00,523.3,WeatherDisplay:10.37,2013-11-02 14:37:00,
2013-11-02 09:42:00,42.8,35.8,30.03,NW,311,8.7,13.0,76,0.00,CLR,,0.00,230.6,WeatherDisplay:10.37,2013-11-02 14:42:00,
2013-11-02 09:47:00,43.2,36.1,30.03,North,5,8.7,11.5,76,0.00,CLR,,0.00,472.4,WeatherDisplay:10.37,2013-11-02 14:47:00,
2013-11-02 09:52:00,43.6,35.9,30.03,NNE,21,7.3,15.0,74,0.00,CLR,,0.00,569.2,WeatherDisplay:10.37,2013-11-02 14:52:00,
2013-11-02 09:57:00,43.8,36.0,30.03,North,355,8.1,12.0,74,0.00,CLR,,0.00,411.7,WeatherDisplay:10.37,2013-11-02 14:57:00,
2013-11-02 10:02:00,43.7,36.6,30.04,NW,309,10.5,14.0,76,0.00,CLR,,0.00,434.0,WeatherDisplay:10.37,2013-11-02 15:02:00,
2013-11-02 10:07:00,43.7,35.3,30.04,NW,307,10.6,15.0,72,0.00,CLR,,0.00,512.1,WeatherDisplay:10.37,2013-11-02 15:07:00,
2013-11-02 10:12:00,43.8,35.4,30.04,NW,326,10.2,17.3,72,0.00,CLR,,0.00,408.0,WeatherDisplay:10.37,2013-11-02 15:12:00,
2013-11-02 10:17:00,43.8,35.4,30.05,NW,326,12.2,14.0,72,0.00,CLR,,0.00,560.5,WeatherDisplay:10.37,2013-11-02 15:17:00,
2013-11-02 10:22:00,43.8,35.0,30.05,North,355,9.5,16.1,71,0.00,CLR,,0.00,566.7,WeatherDisplay:10.37,2013-11-02 15:22:00,
2013-11-02 10:27:00,44.0,35.6,30.05,NW,311,11.3,14.0,72,0.00,CLR,,0.00,549.3,WeatherDisplay:10.37,2013-11-02 15:27:00,
2013-11-02 10:32:00,44.4,35.6,30.05,NW,315,11.2,13.8,71,0.00,CLR,,0.00,549.3,WeatherDisplay:10.37,2013-11-02 15:32:00,
2013-11-02 10:37:00,44.6,35.1,30.05,NNW,333,11.3,15.0,69,0.00,CLR,,0.00,601.4,WeatherDisplay:10.37,2013-11-02 15:37:00,
2013-11-02 10:42:00,44.7,34.4,30.05,West,281,11.8,23.0,67,0.00,CLR,,0.00,632.4,WeatherDisplay:10.37,2013-11-02 15:42:00,
2013-11-02 10:47:00,45.0,35.1,30.05,WNW,290,11.6,16.1,68,0.00,CLR,,0.00,669.6,WeatherDisplay:10.37,2013-11-02 15:47:00,
2013-11-02 10:52:00,45.0,34.7,30.05,West,281,10.6,16.0,67,0.00,CLR,,0.00,400.5,WeatherDisplay:10.37,2013-11-02 15:52:00,
2013-11-02 10:57:00,45.2,35.3,30.06,WNW,299,10.5,15.0,68,0.00,CLR,,0.00,623.7,WeatherDisplay:10.37,2013-11-02 15:57:00,
2013-11-02 11:02:00,45.4,35.1,30.06,NW,312,9.3,12.0,67,0.00,CLR,,0.00,623.7,WeatherDisplay:10.37,2013-11-02 16:02:00,
2013-11-02 11:07:00,45.9,35.9,30.06,NW,311,7.8,11.5,68,0.00,CLR,,0.00,638.6,WeatherDisplay:10.37,2013-11-02 16:07:00,
2013-11-02 11:12:00,46.3,35.9,30.05,NW,325,9.0,12.7,67,0.00,CLR,,0.00,669.6,WeatherDisplay:10.37,2013-11-02 16:12:00,
2013-11-02 11:17:00,46.5,35.7,30.05,NNW,329,7.3,10.4,66,0.00,CLR,,0.00,643.6,WeatherDisplay:10.37,2013-11-02 16:17:00,
2013-11-02 11:22:00,46.7,36.3,30.05,NW,321,13.5,16.1,67,0.00,CLR,,0.00,658.4,WeatherDisplay:10.37,2013-11-02 16:22:00,
2013-11-02 11:27:00,46.9,36.1,30.05,NNW,337,10.8,17.3,66,0.00,CLR,,0.00,670.8,WeatherDisplay:10.37,2013-11-02 16:27:00,
2013-11-02 11:32:00,47.4,37.0,30.06,NNW,333,9.3,12.0,67,0.00,CLR,,0.00,750.2,WeatherDisplay:10.37,2013-11-02 16:32:00,
2013-11-02 11:37:00,47.5,36.7,30.06,NW,306,9.7,14.0,66,0.00,CLR,,0.00,814.7,WeatherDisplay:10.37,2013-11-02 16:37:00,
2013-11-02 11:42:00,47.3,36.5,30.06,NW,307,13.2,18.4,66,0.00,CLR,,0.00,854.4,WeatherDisplay:10.37,2013-11-02 16:42:00,
2013-11-02 11:47:00,47.5,37.1,30.06,NW,326,13.8,18.0,67,0.00,CLR,,0.00,425.3,WeatherDisplay:10.37,2013-11-02 16:47:00,
2013-11-02 11:52:00,47.3,36.9,30.06,NNW,344,9.4,13.0,67,0.00,CLR,,0.00,396.8,WeatherDisplay:10.37,2013-11-02 16:52:00,
2013-11-02 11:58:00,47.2,37.2,30.06,WNW,294,10.4,14.0,68,0.00,CLR,,0.00,344.7,WeatherDisplay:10.37,2013-11-02 16:58:00,
2013-11-02 12:03:00,47.5,37.5,30.06,NW,321,9.6,11.5,68,0.00,CLR,,0.00,771.3,WeatherDisplay:10.37,2013-11-02 17:03:00,
2013-11-02 12:08:00,47.8,37.7,30.06,NNW,342,10.6,13.8,68,0.00,CLR,,0.00,350.9,WeatherDisplay:10.37,2013-11-02 17:08:00,
2013-11-02 12:13:00,48.0,37.9,30.06,NW,322,8.4,10.4,68,0.00,CLR,,0.00,224.4,WeatherDisplay:10.37,2013-11-02 17:13:00,
2013-11-02 12:18:00,47.9,38.2,30.06,NW,306,11.5,18.4,69,0.00,SCT,,0.00,313.7,WeatherDisplay:10.37,2013-11-02 17:18:00,
2013-11-02 12:23:00,47.7,38.8,30.06,NNW,327,12.1,16.0,71,0.00,FEW,,0.00,767.6,WeatherDisplay:10.37,2013-11-02 17:23:00,
2013-11-02 12:28:00,47.8,39.2,30.06,NW,310,13.6,18.4,72,0.00,CLR,,0.00,218.2,WeatherDisplay:10.37,2013-11-02 17:28:00,
2013-11-02 12:33:00,47.6,39.0,30.06,NW,313,12.7,19.6,72,0.00,CLR,,0.00,483.6,WeatherDisplay:10.37,2013-11-02 17:33:00,
2013-11-02 12:38:00,47.7,39.1,30.06,WNW,303,14.7,21.9,72,0.00,FEW,,0.00,932.5,WeatherDisplay:10.37,2013-11-02 17:38:00,
2013-11-02 12:43:00,48.2,39.2,30.06,West,281,11.1,15.0,71,0.00,CLR,,0.00,926.3,WeatherDisplay:10.37,2013-11-02 17:43:00,
2013-11-02 12:48:00,48.6,38.9,30.06,NW,318,13.6,20.0,69,0.00,CLR,,0.00,865.5,WeatherDisplay:10.37,2013-11-02 17:48:00,
2013-11-02 12:53:00,48.7,38.6,30.06,WNW,292,14.9,19.6,68,0.00,CLR,,0.00,848.2,WeatherDisplay:10.37,2013-11-02 17:53:00,
2013-11-02 12:58:00,48.9,38.0,30.06,NW,316,12.2,17.3,66,0.00,CLR,,0.00,193.4,WeatherDisplay:10.37,2013-11-02 17:58:00,
2013-11-02 13:03:00,48.8,37.6,30.06,West,271,13.0,16.1,65,0.00,CLR,,0.00,825.8,WeatherDisplay:10.37,2013-11-02 18:03:00,
2013-11-02 13:08:00,48.9,36.9,30.05,West,265,12.3,15.0,63,0.00,CLR,,0.00,784.9,WeatherDisplay:10.37,2013-11-02 18:08:00,
2013-11-02 13:13:00,48.8,37.2,30.06,West,280,12.8,19.0,64,0.00,CLR,,0.00,658.4,WeatherDisplay:10.37,2013-11-02 18:13:00,
2013-11-02 13:18:00,48.7,36.3,30.06,NNW,334,12.6,18.4,62,0.00,CLR,,0.00,132.7,WeatherDisplay:10.37,2013-11-02 18:18:00,
2013-11-02 13:23:00,48.5,36.1,30.06,NW,323,11.0,19.6,62,0.00,FEW,,0.00,130.2,WeatherDisplay:10.37,2013-11-02 18:23:00,
2013-11-02 13:28:00,48.6,36.2,30.06,WNW,290,9.6,16.1,62,0.00,BKN,,0.00,814.7,WeatherDisplay:10.37,2013-11-02 18:28:00,
2013-11-02 13:33:00,48.8,36.4,30.06,North,5,13.1,20.7,62,0.00,CLR,,0.00,770.0,WeatherDisplay:10.37,2013-11-02 18:33:00,
2013-11-02 13:38:00,49.3,36.4,30.06,WNW,288,16.0,23.0,61,0.00,CLR,,0.00,808.5,WeatherDisplay:10.37,2013-11-02 18:38:00,
2013-11-02 13:43:00,49.4,36.5,30.06,North,350,11.8,19.6,61,0.00,CLR,,0.00,869.2,WeatherDisplay:10.37,2013-11-02 18:43:00,
2013-11-02 13:48:00,50.0,36.7,30.05,NW,318,10.5,17.3,60,0.00,CLR,,0.00,782.4,WeatherDisplay:10.37,2013-11-02 18:48:00,
2013-11-02 13:53:00,50.1,35.4,30.05,NW,311,13.7,20.7,57,0.00,CLR,,0.00,117.8,WeatherDisplay:10.37,2013-11-02 18:53:00,
2013-11-02 13:58:00,49.6,35.8,30.06,WNW,296,8.9,11.5,59,0.00,SCT,,0.00,124.0,WeatherDisplay:10.37,2013-11-02 18:58:00,
2013-11-02 14:03:00,49.3,35.1,30.06,North,360,13.6,19.6,58,0.00,SCT,,0.00,157.5,WeatherDisplay:10.37,2013-11-02 19:03:00,
2013-11-02 14:08:00,49.2,35.0,30.06,WNW,302,11.3,15.0,58,0.00,SCT,,0.00,137.6,WeatherDisplay:10.37,2013-11-02 19:08:00,
2013-11-02 14:13:00,49.1,35.4,30.06,WNW,291,13.1,19.6,59,0.00,BKN,,0.00,222.0,WeatherDisplay:10.37,2013-11-02 19:13:00,
2013-11-02 14:18:00,49.0,34.9,30.06,WNW,298,16.0,20.0,58,0.00,SCT,,0.00,684.5,WeatherDisplay:10.37,2013-11-02 19:18:00,
2013-11-02 14:23:00,49.4,35.2,30.06,NW,309,12.7,17.3,58,0.00,CLR,,0.00,698.1,WeatherDisplay:10.37,2013-11-02 19:23:00,
2013-11-02 14:28:00,49.5,34.9,30.07,WNW,300,10.9,17.3,57,0.00,CLR,,0.00,121.5,WeatherDisplay:10.37,2013-11-02 19:28:00,
2013-11-02 14:33:00,49.7,35.1,30.06,WNW,289,14.8,19.6,57,0.00,CLR,,0.00,688.2,WeatherDisplay:10.37,2013-11-02 19:33:00,
2013-11-02 14:38:00,50.3,34.7,30.06,WNW,296,10.0,20.7,55,0.00,CLR,,0.00,641.1,WeatherDisplay:10.37,2013-11-02 19:38:00,
2013-11-02 14:43:00,50.5,34.9,30.06,WNW,283,16.2,19.6,55,0.00,CLR,,0.00,117.8,WeatherDisplay:10.37,2013-11-02 19:43:00,
2013-11-02 14:48:00,50.2,34.6,30.07,WNW,297,15.4,21.0,55,0.00,CLR,,0.00,606.4,WeatherDisplay:10.37,2013-11-02 19:48:00,
2013-11-02 14:53:00,50.5,34.5,30.07,WNW,287,14.8,19.6,54,0.00,CLR,,0.00,658.4,WeatherDisplay:10.37,2013-11-02 19:53:00,
2013-11-02 14:58:00,50.9,34.8,30.06,NW,315,12.4,18.0,54,0.00,CLR,,0.00,597.7,WeatherDisplay:10.37,2013-11-02 19:58:00,
2013-11-02 15:03:00,51.5,34.9,30.07,West,277,9.8,13.8,53,0.00,CLR,,0.00,577.8,WeatherDisplay:10.37,2013-11-02 20:03:00,
2013-11-02 15:08:00,51.8,34.7,30.07,NW,319,17.2,25.3,52,0.00,CLR,,0.00,558.0,WeatherDisplay:10.37,2013-11-02 20:08:00,
2013-11-02 15:13:00,51.5,34.0,30.07,WNW,300,11.9,19.6,51,0.00,CLR,,0.00,169.9,WeatherDisplay:10.37,2013-11-02 20:13:00,
2013-11-02 15:18:00,51.5,34.9,30.07,WNW,292,14.5,17.3,53,0.00,CLR,,0.00,546.8,WeatherDisplay:10.37,2013-11-02 20:18:00,
2013-11-02 15:23:00,51.5,34.0,30.07,NW,310,13.1,18.4,51,0.00,CLR,,0.00,525.8,WeatherDisplay:10.37,2013-11-02 20:23:00,
2013-11-02 15:28:00,51.6,34.5,30.07,WNW,300,11.5,14.0,52,0.00,CLR,,0.00,494.8,WeatherDisplay:10.37,2013-11-02 20:28:00,
2013-11-02 15:33:00,51.9,34.8,30.07,North,11,9.2,15.0,52,0.00,CLR,,0.00,503.4,WeatherDisplay:10.37,2013-11-02 20:33:00,
2013-11-02 15:38:00,52.1,34.5,30.07,WNW,300,12.5,15.0,51,0.00,CLR,,0.00,483.6,WeatherDisplay:10.37,2013-11-02 20:38:00,
2013-11-02 15:43:00,51.9,34.3,30.07,WNW,301,13.7,20.7,51,0.00,CLR,,0.00,494.8,WeatherDisplay:10.37,2013-11-02 20:43:00,
2013-11-02 15:48:00,52.0,34.4,30.07,NW,313,10.9,15.0,51,0.00,CLR,,0.00,429.0,WeatherDisplay:10.37,2013-11-02 20:48:00,
2013-11-02 15:53:00,52.0,34.4,30.07,North,355,7.7,11.5,51,0.00,CLR,,0.00,408.0,WeatherDisplay:10.37,2013-11-02 20:53:00,
2013-11-02 15:58:00,52.0,34.4,30.07,NW,321,11.0,15.0,51,0.00,CLR,,0.00,399.3,WeatherDisplay:10.37,2013-11-02 20:58:00,
2013-11-02 16:03:00,51.9,33.8,30.07,WNW,302,13.8,19.6,50,0.00,CLR,,0.00,157.5,WeatherDisplay:10.37,2013-11-02 21:03:00,
2013-11-02 16:08:00,51.5,33.5,30.07,NNW,348,11.6,17.3,50,0.00,CLR,,0.00,374.5,WeatherDisplay:10.37,2013-11-02 21:08:00,
2013-11-02 16:13:00,51.5,34.0,30.07,NW,317,7.8,11.5,51,0.00,CLR,,0.00,346.0,WeatherDisplay:10.37,2013-11-02 21:13:00,
2013-11-02 16:18:00,51.8,34.7,30.07,NW,319,6.6,13.8,52,0.00,CLR,,0.00,290.2,WeatherDisplay:10.37,2013-11-02 21:18:00,
2013-11-02 16:23:00,51.9,34.3,30.07,WNW,300,10.2,13.8,51,0.00,CLR,,0.00,322.4,WeatherDisplay:10.37,2013-11-02 21:23:00,
2013-11-02 16:28:00,51.8,34.2,30.07,WNW,296,15.9,20.7,51,0.00,CLR,,0.00,126.5,WeatherDisplay:10.37,2013-11-02 21:28:00,
2013-11-02 16:33:00,51.5,34.0,30.08,WNW,298,12.5,17.3,51,0.00,CLR,,0.00,224.4,WeatherDisplay:10.37,2013-11-02 21:33:00,
2013-11-02 16:38:00,51.3,34.3,30.08,NNW,327,10.6,17.3,52,0.00,CLR,,0.00,98.0,WeatherDisplay:10.37,2013-11-02 21:38:00,
2013-11-02 16:43:00,51.4,34.3,30.08,NNW,327,10.9,17.3,52,0.00,CLR,,0.00,193.4,WeatherDisplay:10.37,2013-11-02 21:43:00,
2013-11-02 16:48:00,51.4,34.3,30.08,NW,326,10.3,19.6,52,0.00,CLR,,0.00,52.1,WeatherDisplay:10.37,2013-11-02 21:48:00,
2013-11-02 16:53:00,51.3,33.8,30.08,WNW,298,12.3,19.6,51,0.00,CLR,,0.00,121.5,WeatherDisplay:10.37,2013-11-02 21:53:00,
2013-11-02 16:58:00,51.2,34.2,30.09,NW,306,7.6,11.5,52,0.00,CLR,,0.00,121.5,WeatherDisplay:10.37,2013-11-02 21:58:00,
2013-11-02 17:03:00,51.2,33.7,30.09,NW,326,9.8,16.0,51,0.00,CLR,,0.00,86.8,WeatherDisplay:10.37,2013-11-02 22:03:00,
2013-11-02 17:08:00,51.2,33.7,30.09,NW,317,13.2,19.6,51,0.00,FEW,,0.00,71.9,WeatherDisplay:10.37,2013-11-02 22:08:00,
2013-11-02 17:13:00,51.1,33.6,30.09,NW,317,10.6,14.0,51,0.00,SCT,,0.00,48.4,WeatherDisplay:10.37,2013-11-02 22:13:00,
2013-11-02 17:18:00,50.9,33.9,30.09,WNW,288,9.4,12.0,52,0.00,BKN,,0.00,34.7,WeatherDisplay:10.37,2013-11-02 22:18:00,
2013-11-02 17:23:00,50.7,33.7,30.09,NW,304,9.1,14.0,52,0.00,OVC,,0.00,26.0,WeatherDisplay:10.37,2013-11-02 22:23:00,
2013-11-02 17:28:00,50.5,33.0,30.09,NW,311,12.0,19.6,51,0.00,BKN,,0.00,23.6,WeatherDisplay:10.37,2013-11-02 22:28:00,
2013-11-02 17:33:00,50.3,33.3,30.09,NNW,331,8.4,11.5,52,0.00,BKN,,0.00,19.8,WeatherDisplay:10.37,2013-11-02 22:33:00,
2013-11-02 17:38:00,50.1,33.6,30.09,WNW,294,7.9,12.0,53,0.00,BKN,,0.00,17.4,WeatherDisplay:10.37,2013-11-02 22:38:00,
2013-11-02 17:43:00,49.8,33.3,30.10,NW,321,5.4,10.4,53,0.00,BKN,,0.00,14.9,WeatherDisplay:10.37,2013-11-02 22:43:00,
2013-11-02 17:48:00,49.6,33.2,30.10,NW,318,6.0,9.2,53,0.00,BKN,,0.00,11.2,WeatherDisplay:10.37,2013-11-02 22:48:00,
2013-11-02 17:53:00,49.4,33.4,30.10,NW,308,6.0,8.1,54,0.00,SCT,,0.00,8.7,WeatherDisplay:10.37,2013-11-02 22:53:00,
2013-11-02 17:58:00,49.2,33.3,30.10,NW,319,6.2,8.1,54,0.00,CLR,,0.00,6.2,WeatherDisplay:10.37,2013-11-02 22:58:00,
2013-11-02 18:03:00,49.0,33.5,30.10,West,281,4.2,8.1,55,0.00,CLR,,0.00,0.0,WeatherDisplay:10.37,2013-11-02 23:03:00,
2013-11-02 18:08:00,48.7,33.2,30.10,WNW,293,5.2,9.2,55,0.00,CLR,,0.00,0.0,WeatherDisplay:10.37,2013-11-02 23:08:00,
2013-11-02 18:13:00,48.5,33.5,30.10,NW,309,3.9,5.8,56,0.00,CLR,,0.00,0.0,WeatherDisplay:10.37,2013-11-02 23:13:00,
2013-11-02 18:18:00,48.3,33.3,30.10,WNW,299,3.8,4.6,56,0.00,CLR,,0.00,0.0,WeatherDisplay:10.37,2013-11-02 23:18:00,
2013-11-02 18:23:00,48.0,33.0,30.11,WNW,302,5.4,7.0,56,0.00,CLR,,0.00,0.0,WeatherDisplay:10.37,2013-11-02 23:23:00,
2013-11-02 18:28:00,47.7,33.2,30.11,WNW,302,3.8,4.6,57,0.00,CLR,,0.00,0.0,WeatherDisplay:10.37,2013-11-02 23:28:00,
2013-11-02 18:33:00,47.6,33.1,30.11,WNW,302,4.2,5.0,57,0.00,CLR,,0.00,0.0,WeatherDisplay:10.37,2013-11-02 23:33:00,
2013-11-02 18:38:00,47.4,33.4,30.11,WNW,302,2.9,5.8,58,0.00,CLR,,0.00,0.0,WeatherDisplay:10.37,2013-11-02 23:38:00,
2013-11-02 18:43:00,47.2,33.2,30.12,WNW,302,2.9,4.0,58,0.00,CLR,,0.00,0.0,WeatherDisplay:10.37,2013-11-02 23:43:00,
2013-11-02 18:48:00,46.9,32.9,30.12,WNW,302,2.6,3.5,58,0.00,CLR,,0.00,0.0,WeatherDisplay:10.37,2013-11-02 23:48:00,
2013-11-02 18:53:00,46.6,33.0,30.12,WNW,302,3.2,4.0,59,0.00,CLR,,0.00,0.0,WeatherDisplay:10.37,2013-11-02 23:53:00,
2013-11-02 18:58:00,46.3,32.7,30.13,WNW,302,2.4,3.5,59,0.00,CLR,,0.00,0.0,WeatherDisplay:10.37,2013-11-02 23:58:00,
2013-11-02 19:03:00,46.0,32.9,30.13,WNW,302,2.2,3.5,60,0.00,CLR,,0.00,0.0,WeatherDisplay:10.37,2013-11-03 00:03:00,
2013-11-02 19:08:00,45.8,33.1,30.13,WNW,302,1.8,2.3,61,0.00,CLR,,0.00,0.0,WeatherDisplay:10.37,2013-11-03 00:08:00,
2013-11-02 19:13:00,45.5,32.8,30.13,WNW,302,1.2,2.3,61,0.00,CLR,,0.00,0.0,WeatherDisplay:10.37,2013-11-03 00:13:00,
2013-11-02 19:18:00,45.1,32.8,30.14,WNW,302,2.3,3.5,62,0.00,CLR,,0.00,0.0,WeatherDisplay:10.37,2013-11-03 00:18:00,
2013-11-02 19:24:00,44.8,33.0,30.13,WNW,302,2.2,3.5,63,0.00,CLR,,0.00,0.0,WeatherDisplay:10.37,2013-11-03 00:24:00,
2013-11-02 19:29:00,44.4,32.6,30.14,WNW,302,3.2,4.0,63,0.00,CLR,,0.00,0.0,WeatherDisplay:10.37,2013-11-03 00:29:00,
2013-11-02 19:34:00,44.2,32.8,30.14,WNW,302,2.5,3.5,64,0.00,CLR,,0.00,0.0,WeatherDisplay:10.37,2013-11-03 00:34:00,
2013-11-02 19:39:00,44.1,32.7,30.14,WNW,302,2.8,3.5,64,0.00,CLR,,0.00,0.0,WeatherDisplay:10.37,2013-11-03 00:39:00,
2013-11-02 19:44:00,44.0,32.6,30.14,WNW,302,2.7,3.5,64,0.00,CLR,,0.00,0.0,WeatherDisplay:10.37,2013-11-03 00:44:00,
2013-11-02 19:49:00,43.9,32.5,30.14,WNW,302,2.2,3.5,64,0.00,CLR,,0.00,0.0,WeatherDisplay:10.37,2013-11-03 00:49:00,
2013-11-02 19:54:00,43.8,32.8,30.14,WNW,302,2.2,3.5,65,0.00,CLR,,0.00,0.0,WeatherDisplay:10.37,2013-11-03 00:54:00,
2013-11-02 19:59:00,43.6,32.6,30.14,WNW,302,0.8,2.3,65,0.00,CLR,,0.00,0.0,WeatherDisplay:10.37,2013-11-03 00:59:00,
2013-11-02 20:04:00,43.4,32.8,30.15,WNW,302,0.0,0.0,66,0.00,CLR,,0.00,0.0,WeatherDisplay:10.37,2013-11-03 01:04:00,
2013-11-02 20:09:00,43.1,32.5,30.15,WNW,302,0.0,0.0,66,0.00,CLR,,0.00,0.0,WeatherDisplay:10.37,2013-11-03 01:09:00,
2013-11-02 20:14:00,42.9,32.7,30.15,WNW,302,0.0,1.2,67,0.00,CLR,,0.00,0.0,WeatherDisplay:10.37,2013-11-03 01:14:00,
2013-11-02 20:19:00,42.5,32.3,30.15,WNW,302,0.0,0.0,67,0.00,CLR,,0.00,0.0,WeatherDisplay:10.37,2013-11-03 01:19:00,
2013-11-02 20:24:00,42.1,32.3,30.15,WNW,302,0.0,0.0,68,0.00,CLR,,0.00,0.0,WeatherDisplay:10.37,2013-11-03 01:24:00,
2013-11-02 20:29:00,41.6,31.8,30.16,WNW,302,0.0,0.0,68,0.00,CLR,,0.00,0.0,WeatherDisplay:10.37,2013-11-03 01:29:00,
2013-11-02 20:34:00,41.2,31.8,30.16,WNW,302,0.0,0.0,69,0.00,CLR,,0.00,0.0,WeatherDisplay:10.37,2013-11-03 01:34:00,
2013-11-02 20:39:00,40.9,31.5,30.16,WNW,302,0.0,0.0,69,0.00,CLR,,0.00,0.0,WeatherDisplay:10.37,2013-11-03 01:39:00,
2013-11-02 20:44:00,40.5,31.5,30.16,WNW,302,0.0,0.0,70,0.00,CLR,,0.00,0.0,WeatherDisplay:10.37,2013-11-03 01:44:00,
2013-11-02 20:49:00,40.1,31.1,30.16,WNW,302,0.0,0.0,70,0.00,CLR,,0.00,0.0,WeatherDisplay:10.37,2013-11-03 01:49:00,
2013-11-02 20:54:00,39.8,31.2,30.16,WNW,302,0.0,0.0,71,0.00,CLR,,0.00,0.0,WeatherDisplay:10.37,2013-11-03 01:54:00,
2013-11-02 20:59:00,39.5,31.2,30.16,WNW,302,0.0,0.0,72,0.00,CLR,,0.00,0.0,WeatherDisplay:10.37,2013-11-03 01:59:00,
2013-11-02 21:04:00,39.2,30.9,30.16,WNW,302,0.0,0.0,72,0.00,CLR,,0.00,0.0,WeatherDisplay:10.37,2013-11-03 02:04:00,
2013-11-02 21:09:00,38.9,31.0,30.16,WNW,302,0.0,0.0,73,0.00,CLR,,0.00,0.0,WeatherDisplay:10.37,2013-11-03 02:09:00,
2013-11-02 21:14:00,38.7,31.1,30.16,WNW,302,0.0,0.0,74,0.00,CLR,,0.00,0.0,WeatherDisplay:10.37,2013-11-03 02:14:00,
2013-11-02 21:19:00,38.4,30.8,30.16,WNW,302,0.0,0.0,74,0.00,CLR,,0.00,0.0,WeatherDisplay:10.37,2013-11-03 02:19:00,
2013-11-02 21:24:00,38.2,30.6,30.16,WNW,302,0.0,0.0,74,0.00,CLR,,0.00,0.0,WeatherDisplay:10.37,2013-11-03 02:24:00,
2013-11-02 21:29:00,38.0,30.8,30.16,WNW,302,0.0,0.0,75,0.00,CLR,,0.00,0.0,WeatherDisplay:10.37,2013-11-03 02:29:00,
2013-11-02 21:34:00,37.8,30.6,30.16,WNW,302,0.0,0.0,75,0.00,CLR,,0.00,0.0,WeatherDisplay:10.37,2013-11-03 02:34:00,
2013-11-02 21:39:00,37.7,30.5,30.16,WNW,302,0.0,0.0,75,0.00,CLR,,0.00,0.0,WeatherDisplay:10.37,2013-11-03 02:39:00,
2013-11-02 21:44:00,37.6,30.7,30.16,WNW,302,0.0,0.0,76,0.00,CLR,,0.00,0.0,WeatherDisplay:10.37,2013-11-03 02:44:00,
2013-11-02 21:49:00,37.5,30.6,30.17,WNW,302,0.0,0.0,76,0.00,CLR,,0.00,0.0,WeatherDisplay:10.37,2013-11-03 02:49:00,
2013-11-02 21:54:00,37.3,30.7,30.17,WNW,302,0.0,0.0,77,0.00,CLR,,0.00,0.0,WeatherDisplay:10.37,2013-11-03 02:54:00,
2013-11-02 21:59:00,37.1,30.6,30.17,WNW,302,0.0,0.0,77,0.00,CLR,,0.00,0.0,WeatherDisplay:10.37,2013-11-03 02:59:00,
2013-11-02 22:04:00,36.9,30.4,30.17,WNW,302,0.0,0.0,77,0.00,CLR,,0.00,0.0,WeatherDisplay:10.37,2013-11-03 03:04:00,
2013-11-02 22:09:00,36.8,30.6,30.17,WNW,302,0.0,0.0,78,0.00,CLR,,0.00,0.0,WeatherDisplay:10.37,2013-11-03 03:09:00,
2013-11-02 22:14:00,36.6,30.4,30.17,WNW,302,0.0,0.0,78,0.00,CLR,,0.00,0.0,WeatherDisplay:10.37,2013-11-03 03:14:00,
2013-11-02 22:19:00,36.4,30.5,30.17,WNW,302,0.0,0.0,79,0.00,CLR,,0.00,0.0,WeatherDisplay:10.37,2013-11-03 03:19:00,
2013-11-02 22:24:00,36.3,30.4,30.17,WNW,302,0.0,0.0,79,0.00,CLR,,0.00,0.0,WeatherDisplay:10.37,2013-11-03 03:24:00,
2013-11-02 22:29:00,36.1,30.2,30.17,WNW,302,0.0,0.0,79,0.00,CLR,,0.00,0.0,WeatherDisplay:10.37,2013-11-03 03:29:00,
2013-11-02 22:34:00,36.0,30.4,30.17,WNW,302,0.0,0.0,80,0.00,CLR,,0.00,0.0,WeatherDisplay:10.37,2013-11-03 03:34:00,
2013-11-02 22:39:00,35.9,30.3,30.17,WNW,302,0.0,0.0,80,0.00,CLR,,0.00,0.0,WeatherDisplay:10.37,2013-11-03 03:39:00,
2013-11-02 22:44:00,35.7,30.1,30.17,WNW,302,0.0,0.0,80,0.00,CLR,,0.00,0.0,WeatherDisplay:10.37,2013-11-03 03:44:00,
2013-11-02 22:49:00,35.5,29.9,30.17,WNW,302,0.0,0.0,80,0.00,CLR,,0.00,0.0,WeatherDisplay:10.37,2013-11-03 03:49:00,
2013-11-02 22:54:00,35.3,30.1,30.17,WNW,302,0.0,0.0,81,0.00,CLR,,0.00,0.0,WeatherDisplay:10.37,2013-11-03 03:54:00,
2013-11-02 22:59:00,35.1,29.9,30.17,WNW,302,0.0,0.0,81,0.00,CLR,,0.00,0.0,WeatherDisplay:10.37,2013-11-03 03:59:00,
2013-11-02 23:01:00,35.1,29.9,30.17,WNW,302,0.0,0.0,81,0.00,CLR,,0.00,0.0,WeatherDisplay:10.37,2013-11-03 04:01:00,
2013-11-02 23:03:00,35.0,29.8,30.17,WNW,302,0.0,0.0,81,0.00,CLR,,0.00,0.0,WeatherDisplay:10.37,2013-11-03 04:03:00,
2013-11-02 23:08:00,34.8,29.9,30.17,WNW,302,0.0,0.0,82,0.00,CLR,,0.00,0.0,WeatherDisplay:10.37,2013-11-03 04:08:00,
2013-11-02 23:13:00,34.4,29.5,30.17,WNW,302,0.0,0.0,82,0.00,CLR,,0.00,0.0,WeatherDisplay:10.37,2013-11-03 04:13:00,
2013-11-02 23:18:00,34.4,29.5,30.18,WNW,302,0.0,0.0,82,0.00,CLR,,0.00,0.0,WeatherDisplay:10.37,2013-11-03 04:18:00,
2013-11-02 23:23:00,34.4,29.5,30.17,WNW,302,0.0,0.0,82,0.00,CLR,,0.00,0.0,WeatherDisplay:10.37,2013-11-03 04:23:00,
2013-11-02 23:28:00,34.2,29.6,30.17,WNW,302,0.0,0.0,83,0.00,CLR,,0.00,0.0,WeatherDisplay:10.37,2013-11-03 04:28:00,
2013-11-02 23:33:00,34.1,29.5,30.17,WNW,302,0.0,0.0,83,0.00,CLR,,0.00,0.0,WeatherDisplay:10.37,2013-11-03 04:33:00,
2013-11-02 23:38:00,33.9,29.3,30.17,WNW,302,0.0,0.0,83,0.00,CLR,,0.00,0.0,WeatherDisplay:10.37,2013-11-03 04:38:00,
2013-11-02 23:43:00,33.8,29.2,30.18,WNW,302,0.0,0.0,83,0.00,CLR,,0.00,0.0,WeatherDisplay:10.37,2013-11-03 04:43:00,
2013-11-02 23:48:00,33.6,29.3,30.18,WNW,302,0.0,0.0,84,0.00,CLR,,0.00,0.0,WeatherDisplay:10.37,2013-11-03 04:48:00,
2013-11-02 23:53:00,33.5,29.2,30.18,WNW,302,0.0,0.0,84,0.00,CLR,,0.00,0.0,WeatherDisplay:10.37,2013-11-03 04:53:00,
2013-11-02 23:58:00,33.4,29.1,30.18,WNW,302,0.0,0.0,84,0.00,CLR,,0.00,0.0,WeatherDisplay:10.37,2013-11-03 04:58:00,